Location: Newark
(50.2225°N, 86.0456°E)
Time: 03:47:02
(UTC+00:00)

N. Korean satellite - Visible Passes

Search period start: 20 January 2020 00:00
Search period end: 30 January 2020 00:00
Orbit: 454 x 508 km, 97.2° (Epoch: 19 January)

Date Brightness Start Highest point End Pass type
(mag) Time Alt. Az. Time Alt. Az. Time Alt. Az.
20 Jan 7.1 00:00:51 10° NNE 00:04:19 57° E 00:07:50 10° S visible
20 Jan 9.7 12:15:33 10° SW 12:17:38 15° W 12:19:44 10° NW visible
20 Jan 8.6 23:35:37 10° NNE 23:38:45 29° E 23:41:54 10° SSE visible
21 Jan 7.6 01:09:11 10° NNW 01:12:03 24° WNW 01:14:56 10° WSW visible
21 Jan 8.8 11:48:56 10° SSW 11:51:57 28° W 11:54:58 10° NW visible
21 Jan 9.6 23:10:49 10° NE 23:13:04 16° E 23:15:20 10° SE visible
22 Jan 6.8 00:43:18 10° N 00:46:41 44° WNW 00:50:05 10° SW visible
22 Jan 7.2 11:22:58 10° S 11:26:21 57° W 11:29:45 10° NNW visible
23 Jan 6.4 00:17:41 10° NNE 00:21:13 88° WNW 00:24:49 10° SSW visible
23 Jan 7.7 23:52:15 10° NNE 23:55:42 45° E 23:59:10 10° S visible
24 Jan 8.1 01:26:28 10° NNW 01:28:47 17° WNW 01:31:08 10° WSW visible
24 Jan 9.6 12:06:26 10° SW 12:08:55 19° W 12:11:26 10° NW visible
24 Jan 9.0 23:27:07 10° NE 23:30:04 24° E 23:33:03 10° SSE visible
25 Jan 7.4 01:00:22 10° N 01:03:29 29° WNW 01:06:37 10° SW visible
25 Jan 8.4 11:40:05 10° SSW 11:43:15 35° W 11:46:28 10° NNW visible
25 Jan 9.9 23:02:33 10° ENE 23:04:22 13° E 23:06:11 10° ESE visible
26 Jan 6.6 00:34:34 10° N 00:38:05 55° WNW 00:41:37 10° SSW visible
27 Jan 6.7 00:09:01 10° NNE 00:12:36 74° ESE 00:16:13 10° S visible
27 Jan 10.0 12:24:26 10° WSW 12:25:56 12° W 12:27:27 10° WNW visible
27 Jan 8.1 23:43:40 10° NNE 23:47:02 37° E 23:50:25 10° SSE visible
28 Jan 7.9 01:17:33 10° NNW 01:20:14 20° WNW 01:22:56 10° WSW visible
28 Jan 9.3 11:57:25 10° SSW 12:00:12 23° W 12:03:01 10° NW visible
28 Jan 9.3 23:18:39 10° NE 23:21:23 20° E 23:24:08 10° SE visible
29 Jan 7.1 00:51:34 10° N 00:54:53 36° WNW 00:58:14 10° SW visible
29 Jan 7.9 11:31:15 10° S 11:34:33 44° W 11:37:54 10° NNW visible
29 Jan 10.1 22:54:36 10° ENE 22:55:38 11° E 22:56:41 10° ESE visible
